sat.trackr.live / text

‹ back to catalog

STARLINK-36351

NORAD 67607 · 2026-018U

PAYLOAD ACTIVE UNKNOWN

§ Identity

Operator
Country
US
Launch date
2026-01-29
Launch site
AFWTR
Launch vehicle
Mass (kg)
RCS (m²)

Purposes: comms

External: N2YO · Heavens-Above · Gunter

§ Orbital elements

Epoch: 2026-09-19T09:38:37.920192Z

Period
93.91 min
Inclination
97.2852°
Eccentricity
0.0000618
Mean motion
15.33432245 rev/d
Perigee alt
465.2 km
Apogee alt
466.0 km
Semi-major
6,843.7 km
B*
4.8751e-4
RAAN
325.9009°
Arg perigee
50.8282°
Mean anomaly
309.3016°
Rev number
3,702

§ Raw data

STARLINK-363511 67607U 26018U   26262.40182778  .00015690  00000+0  48751-3 0  99962 67607  97.2852 325.9009 0000618  50.8282 309.3016 15.33432245 37025

JSON: /api/v1/satellites/67607 · /tle

For live sub-satellite position, see the globe view (requires WebGL).

§ Visibility from observer

Set your observer location to see the next 7 days of passes ≥ 10°. The values pass through the URL so the page stays shareable.

No JS? Fill the form by hand. The geolocation button needs JavaScript.